CDT,Max TemperatureF,Mean TemperatureF,Min TemperatureF,Max Dew PointF,MeanDew PointF,Min DewpointF,Max Humidity, Mean Humidity, Min Humidity, Max Sea Level PressureIn, Mean Sea Level PressureIn, Min Sea Level PressureIn, Max VisibilityMiles, Mean VisibilityMiles, Min VisibilityMiles, Max Wind SpeedMPH, Mean Wind SpeedMPH, Max Gust SpeedMPH,PrecipitationIn, CloudCover, Events, WindDirDegrees
2013-4-1,91,79,68,67,65,60,89,70,36,30.00,29.93,29.86,10,10,7,16,7,23,0.00,4,,113
2013-4-2,85,78,70,68,66,65,86,72,51,29.96,29.84,29.73,10,10,7,16,10,26,0.00,5,Rain,140
2013-4-3,82,72,64,68,60,53,87,64,43,30.09,29.88,29.77,10,10,7,20,9,26,0.00,7,Rain,25
2013-4-4,83,70,56,53,46,34,75,51,18,30.17,30.11,30.04,10,10,10,16,9,29,0.00,2,,7
2013-4-5,82,66,50,54,50,46,91,63,28,30.27,30.16,30.05,10,10,7,15,3,22,0.00,0,,91
2013-4-6,83,72,61,60,57,54,82,64,40,30.09,29.97,29.86,10,10,10,23,10,31,0.00,2,,145
2013-4-7,86,76,65,65,61,59,85,65,40,29.93,29.84,29.76,10,10,7,23,12,30,0.00,4,,153
2013-4-8,87,78,70,68,66,65,84,70,48,29.82,29.71,29.62,10,9,5,21,15,30,0.00,6,,157
2013-4-9,93,82,72,69,68,66,85,67,42,29.70,29.63,29.54,10,8,5,22,18,34,0.00,4,,158
2013-4-10,95,78,61,69,63,51,83,62,26,29.80,29.65,29.58,10,8,5,24,17,33,0.00,6,,90
2013-4-11,78,66,54,52,45,38,77,53,24,29.96,29.86,29.79,10,10,10,16,11,24,0.00,2,,35
2013-4-12,85,68,53,60,55,50,88,64,34,29.94,29.89,29.83,10,10,10,16,5,26,0.00,1,,102
2013-4-13,84,74,64,64,60,51,83,66,34,29.93,29.81,29.70,10,10,10,17,9,25,0.00,4,,119
2013-4-14,93,81,69,68,66,61,88,68,34,29.78,29.72,29.63,10,8,5,14,6,22,0.00,5,Rain,151
2013-4-15,93,82,71,69,66,62,87,64,37,29.79,29.72,29.65,10,8,3,21,14,28,0.00,2,,152
2013-4-16,95,82,71,72,69,62,90,70,34,29.83,29.77,29.67,10,7,2,25,12,38,0.00,3,,146
2013-4-17,94,84,75,72,71,67,90,71,41,29.84,29.73,29.61,10,6,2,26,16,33,0.00,7,,153
2013-4-18,97,80,64,71,63,41,78,58,31,30.03,29.71,29.60,10,7,4,23,17,34,0.00,5,,122
2013-4-19,72,64,55,44,32,20,53,34,15,30.33,30.20,30.04,10,10,10,18,13,29,0.00,4,,41
2013-4-20,80,64,48,50,41,35,75,46,20,30.23,30.12,30.00,10,10,7,15,4,22,0.00,0,,117
2013-4-21,88,72,58,63,55,50,82,57,31,30.08,30.02,29.96,10,10,10,15,6,22,0.00,1,,108
2013-4-22,89,77,65,66,64,61,88,67,39,30.06,29.98,29.89,10,10,7,16,7,22,0.00,4,,135
2013-4-23,86,78,70,68,67,66,88,73,51,29.94,29.84,29.76,10,9,7,26,12,33,0.00,7,,144
2013-4-24,76,64,51,70,56,47,91,85,73,30.22,30.07,29.89,10,8,2,20,10,28,0.12,7,Rain,9
2013-4-25,64,60,56,62,54,48,93,81,63,30.24,30.19,30.13,10,7,1,15,8,20,0.00,8,Rain,326
2013-4-26,89,74,60,68,64,58,94,75,47,30.18,30.06,29.97,10,6,0,22,6,29,0.00,6,Fog-Rain,156
2013-4-27,87,80,72,70,68,65,86,70,50,30.05,29.96,29.87,10,9,7,17,11,23,0.00,6,,145
2013-4-28,78,71,64,70,66,61,91,82,62,29.98,29.91,29.82,10,8,0,24,9,31,2.67,7,Rain-Thunderstorm,96
2013-4-29,81,73,66,70,66,63,93,80,57,29.92,29.84,29.76,10,8,4,14,4,21,0.03,6,Rain,94
2013-4-30,90,78,66,70,67,64,93,75,45,29.81,29.75,29.68,10,6,0,14,4,17,0.00,4,Fog,112